Location: Helsinki
(60.1699°N, 24.9384°E)
Time: 23:54:27
(UTC+02:00)

A-11 Canister half - Pass Details

Date: 03 November 2020
Orbit: 1516 x 1684 km, 47.2° (Epoch: 26 November)

Event Time Altitude Azimuth Distance (km) Brightness Sun altitude
Rises 20:23:29 0° 234° (SW) 4,934 12.0 -30.3°
Reaches altitude 10° 20:26:58 10° 226° (SW) 3,942 11.3 -30.7°
Enters shadow 20:34:43 35° 178° (S) 2,449 9.8 -31.6°
Maximum altitude 20:35:49 36° 165° (SSE) 2,414 - -31.7°
Drops below altitude 10° 20:44:28 10° 104° (ESE) 3,866 - -32.6°
Sets 20:47:51 0° 97° (E) 4,829 - -33.0°
